TimeEDT,TemperatureF,Dew PointF,Humidity,Sea Level PressureIn,VisibilityMPH,Wind Direction,Wind SpeedMPH,Gust SpeedMPH,PrecipitationIn,Events,Conditions,WindDirDegrees,DateUTC
12:56 AM,48.9,45.0,86,30.16,10.0,SW,4.6,-,N/A,,Clear,230,2013-10-28 04:56:00
1:56 AM,46.9,44.1,90,30.16,10.0,Calm,Calm,-,N/A,,Clear,0,2013-10-28 05:56:00
2:56 AM,46.9,44.1,90,30.16,10.0,Calm,Calm,-,N/A,,Clear,0,2013-10-28 06:56:00
3:56 AM,46.0,44.1,93,30.16,10.0,SW,4.6,-,N/A,,Clear,220,2013-10-28 07:56:00
4:56 AM,48.0,45.0,89,30.16,10.0,Calm,Calm,-,N/A,,Partly Cloudy,0,2013-10-28 08:56:00
5:56 AM,45.0,43.0,93,30.18,10.0,Calm,Calm,-,N/A,,Partly Cloudy,0,2013-10-28 09:56:00
6:56 AM,44.1,42.1,93,30.20,10.0,Calm,Calm,-,N/A,,Scattered Clouds,0,2013-10-28 10:56:00
7:56 AM,44.1,42.1,93,30.22,10.0,SW,3.5,-,N/A,Fog,Patches of Fog,220,2013-10-28 11:56:00
8:56 AM,52.0,50.0,93,30.24,10.0,Calm,Calm,-,N/A,,Mostly Cloudy,0,2013-10-28 12:56:00
9:56 AM,59.0,50.0,72,30.25,10.0,SW,8.1,-,N/A,,Mostly Cloudy,230,2013-10-28 13:56:00
10:56 AM,64.0,48.9,58,30.26,10.0,SSW,8.1,-,N/A,,Mostly Cloudy,200,2013-10-28 14:56:00
11:56 AM,66.0,48.0,52,30.26,10.0,SSW,8.1,-,N/A,,Overcast,210,2013-10-28 15:56:00
12:56 PM,64.9,48.0,54,30.23,10.0,South,5.8,-,N/A,,Overcast,190,2013-10-28 16:56:00
1:56 PM,66.9,48.9,52,30.22,10.0,South,6.9,-,N/A,,Overcast,190,2013-10-28 17:56:00
2:56 PM,66.0,46.9,50,30.20,10.0,SSW,9.2,-,N/A,,Overcast,200,2013-10-28 18:56:00
3:56 PM,66.0,48.9,54,30.20,10.0,South,6.9,-,N/A,,Overcast,190,2013-10-28 19:56:00
4:56 PM,64.9,48.9,56,30.21,10.0,South,6.9,-,N/A,,Mostly Cloudy,180,2013-10-28 20:56:00
5:56 PM,63.0,48.9,60,30.21,10.0,South,4.6,-,N/A,,Mostly Cloudy,180,2013-10-28 21:56:00
6:56 PM,60.1,48.9,67,30.24,10.0,South,3.5,-,N/A,,Scattered Clouds,170,2013-10-28 22:56:00
7:56 PM,55.0,50.0,83,30.25,10.0,Calm,Calm,-,N/A,,Mostly Cloudy,0,2013-10-28 23:56:00
8:56 PM,52.0,48.9,89,30.25,10.0,Calm,Calm,-,N/A,,Mostly Cloudy,0,2013-10-29 00:56:00
9:56 PM,48.9,48.0,97,30.27,10.0,Calm,Calm,-,N/A,,Scattered Clouds,0,2013-10-29 01:56:00
10:56 PM,48.0,46.9,96,30.27,9.0,Calm,Calm,-,N/A,,Scattered Clouds,0,2013-10-29 02:56:00
11:56 PM,48.9,46.9,93,30.27,8.0,Calm,Calm,-,N/A,,Scattered Clouds,0,2013-10-29 03:56:00